OV1-2

Satellite information

Favourite Embed

Satellite Type and Status

PAYLOADIN ORBIT

Key statistics

Satellite OV1-2 at a glance.

Uptime

21764

Days in orbit

Revolutions

≈ 13.0

Per day

Orbit

HEO

HEO

Inclination

144.2

Latest

Satellite identification and parameters

Extended collection of information and parameters for OV1-2.

Object identification

Identified? True

Debris? False

Object name: OV1-2

International designator: 1965-078A

Object number (NORAD): 1613

Object ID (CCSDS): 1613

Country: UNITED STATES OF AMERICA (US)

Current information (Y/N): Y

RCS size: MEDIUM

Orbital parameters

Period: 111.04 minutes

Inclination: 144.2276 deg

SMA: 7652.657 km

Apoapsis: 2152.629 km

Periapsis: 396.415 km

RAAN: 19.2032 deg

Eccentricy: 0.1147454

Argument of periapsis: 341.4107 deg

Mean anomaly: 14.7891 deg

Mean motion: 12.96834074 rev/day

Mean motion (dot): 0.00009674 rev/day2

B* drag term: 0.00096612 1/REarth

Two-line elements (TLE)

Creation date: May 6, 2025, 3:54 a.m.

Reference frame: TEME

Reference center: EARTH

Epoch: May 5, 2025, 3:39 p.m. UTC

TLE line 0: 0 OV1-2

TLE line 1: 1 01613U 65078A 25125.65226850 .00009674 00000-0 96612-3 0 9999

TLE line 2: 2 01613 144.2276 19.2032 1147454 341.4107 14.7891 12.96834074661706

Live tracking on map

Real-time ground track for satellite OV1-2.

In-orbit conjunctions

A list of the most updated potential collisions computed for object OV1-2.

Target Orbit TCA Probability of collision Miss distance Type
H-2A R/B LEO 2025-05-04 11:43:11 0.0005290848 635.0 (m) ROCKET BODY

Associated space launch

The OV1 (Orbiting Vehicle 1) were small research satellite to be launched piggy back on Atlas ICBM test flights. They consisted in general of the OV1 satellite and the OV1-PM propulsion module (or upper stage) to reach orbit.

OV1-2 was lifted into orbit during the mission ‘Atlas D | OV1-2’, on board a Atlas D space rocket.

The launch took place on Oct. 5, 1965, 9:07 a.m. from 576B3.

For more information about the launch, click the button.

Launch to space Atlas D | OV1-2
Atlas D | OV1-2

Agency: N/A

Status: Launch Successful

Launch date: Oct. 5, 1965, 9:07 a.m. UTC

Rocket: Atlas D

Launch pad: 576B3

Location: Vandenberg SFB, CA, USA

...

Latest news about this satellite

There are no fresh news available about this satellite. Check back as we update our databases every day.


Newsletter sign-up

Weekly statistics, charts and insights to help you stay on top of the space industry.